Regional Weather Roundup
Issued by NWS Kansas City/Pleasant Hill, MO

Home | Current Version | Previous Version | Text Only | Print | Product List | Glossary On
Versions: 1 2 3 4 5 6 7 8 9 10 11 12 13 14 15 16 17 18 19 20 21 22 23 24 25 26 27 28 29 30 31 32 33 34 35 36 37 38 39 40 41 42 43 44 45 46 47 48 49 50
000
ASUS43 KEAX 242011
RWREAX

WEATHER ROUNDUP FOR EASTERN KANSAS AND NORTHWEST MISSOURI
NATIONAL WEATHER SERVICE KANSAS CITY/PLEASANT HILL MO
300 PM CDT SUN MAY 24 2015

KSZ040-057-103>105-MOZ028-029-037-043-242100-
...KANSAS CITY METROPOLITAN AREA...

CITY           SKY/WX    TMP DP  RH WIND       PRES   REMARKS
K.C. INTL      CLOUDY    69  64  84 S9        29.86F
K.C. DOWNTOWN  CLOUDY    71  63  75 S5        29.85F
LEES SUMMIT    LGT RAIN  67  63  87 S6        29.87F
OLATHE - IXD   CLOUDY    70  62  76 S7        29.88F
OLATHE - OJC   CLOUDY    71  64  78 SW6       29.87F
LAWRENCE       CLOUDY    70  61  73 SW7       29.86F

$$

MOZ001>008-011>017-020>025-030>033-038>040-044>046-053-054-242100-
...NORTHERN AND CENTRAL MISSOURI...

CITY           SKY/WX    TMP DP  RH WIND       PRES   REMARKS
ST. JOSEPH     CLOUDY    70  64  81 S10       29.84F
MOSBY          DRIZZLE   68  63  83 SE3       29.85F
WARRENSBURG    LGT RAIN  66  63  88 CALM      29.88S
WHITEMAN AFB   DRIZZLE   67  64  93 SW3       29.87S
CLINTON        DRIZZLE   66  66 100 SW6       29.90S
SEDALIA        CLOUDY    72  66  81 W8        29.88S
WARSAW         NOT AVBL
CHILLICOTHE      N/A     70  66  87 S5        29.87F
KIRKSVILLE     LGT RAIN  70  68  94 SW5       29.88F FOG

$$

MOZ041-047>049-056>058-063>065-088>090-097-242100-
...EASTERN AND SOUTHERN MISSOURI...

CITY           SKY/WX    TMP DP  RH WIND       PRES   REMARKS
ST. LOUIS INTL PTSUNNY   85  62  46 S17       29.96F
SPIRIT OF STL  PTSUNNY   84  63  49 S18G28    29.93F
COLUMBIA       PTSUNNY   79  66  64 S15       29.87F
JEFFERSON CITY MOSUNNY   83  65  54 S20G25    29.86F
ROLLA          PTSUNNY   80  67  64 S16       29.90F
OSAGE BEACH    CLOUDY    70  64  83 SW13      29.91R
SPRINGFIELD    LGT RAIN  68  64  87 SW10      29.92F
BRANSON        RAIN      68  64  88 W6        29.94F
WEST PLAINS    RAIN      74  67  78 S13       29.97F

$$

IAZ060-094-KSZ022-034>040-054-083-096-NEZ052-066-093-242100-
...KANSAS...SOUTHEAST NEBRASKA AND IOWA...

CITY           SKY/WX    TMP DP  RH WIND       PRES   REMARKS
TOPEKA         CLOUDY    70  61  73 S8        29.86F
MANHATTAN      CLOUDY    70  61  73 S10       29.84F
EMPORIA        LGT RAIN  66  61  84 S12       29.87S
CHANUTE        LGT RAIN  67  63  87 S8        29.89F
WICHITA        CLOUDY    69  60  73 S16       29.86F
OMAHA          CLOUDY    68  61  78 SW3       29.81S
LINCOLN        CLOUDY    70  60  70 VRB5      29.82F
FALLS CITY     CLOUDY    69  63  81 S9        29.83F
LAMONI         CLOUDY    71  64  78 S10       29.85F
DES MOINES     LGT RAIN  69  63  81 S14       29.84F

$$



USA.gov is the U.S. government's official web portal to all federal, state and local government web resources and services.